| time (UTC) | temp F | wind direction | speed knots | gust knots | rain 1hr in | rain 24hr in | rain mn in | humidity % | barometer mb |
| 20260507114603 | 59 | 27 | 7.8 | 16.5 | 0.00 | 0.00 | 0.00 | 89 | 1022.7 |
| 20260507113058 | 59 | 312 | 7.0 | 19.1 | 0.00 | 0.00 | 0.00 | 89 | 1022.8 |
| 20260507111604 | 59 | 338 | 6.1 | 15.6 | 0.00 | 0.00 | 0.00 | 89 | 1022.8 |
| 20260507110059 | 59 | 292 | 5.2 | 18.2 | 0.00 | 0.00 | 0.00 | 89 | 1022.8 |
| 20260507104602 | 59 | 347 | 7.0 | 15.6 | 0.00 | 0.00 | 0.00 | 89 | 1023.0 |
| 20260507103059 | 59 | 337 | 7.0 | 17.4 | 0.00 | 0.00 | 0.00 | 89 | 1023.0 |
| 20260507101634 | 59 | 304 | 7.8 | 15.6 | 0.00 | 0.00 | 0.00 | 89 | 1023.0 |
| 20260507100100 | 59 | 316 | 7.0 | 16.5 | 0.00 | 0.00 | 0.00 | 89 | 1023.2 |
| 20260507094559 | 59 | 323 | 6.1 | 15.6 | 0.00 | 0.00 | 0.00 | 89 | 1023.1 |
| 20260507093100 | 59 | 316 | 5.2 | 13.0 | 0.00 | 0.00 | 0.00 | 89 | 1023.3 |
| 20260507091600 | 58 | 8 | 6.1 | 13.9 | 0.00 | 0.00 | 0.00 | 89 | 1023.4 |
| 20260507090113 | 58 | 325 | 5.2 | 11.3 | 0.00 | 0.00 | 0.00 | 89 | 1023.6 |
| 20260507084601 | 58 | 311 | 5.2 | 11.3 | 0.00 | 0.00 | 0.00 | 89 | 1023.7 |
| 20260507083101 | 58 | 314 | 4.3 | 15.6 | 0.00 | 0.00 | 0.00 | 89 | 1023.7 |
| 20260507081559 | 59 | 327 | 6.1 | 11.3 | 0.00 | 0.00 | 0.00 | 89 | 1023.6 |
| 20260507074601 | 59 | 317 | 7.0 | 13.0 | 0.00 | 0.00 | 0.00 | 88 | 1024.0 |
| 20260507073059 | 59 | 309 | 6.1 | 12.2 | 0.00 | 0.00 | 0.00 | 87 | 1024.1 |
| 20260507071609 | 60 | 358 | 5.2 | 13.9 | 0.00 | 0.00 | 0.00 | 87 | 1024.0 |
| 20260507070100 | 60 | 333 | 7.0 | 15.6 | 0.00 | 0.00 | 0.00 | 87 | 1024.1 |
| 20260507064619 | 60 | 296 | 6.1 | 13.0 | 0.00 | 0.00 | 0.00 | 88 | 1024.2 |
| 20260507063058 | 60 | 300 | 5.2 | 12.2 | 0.00 | 0.00 | 0.00 | 88 | 1024.2 |
| 20260507061556 | 60 | 316 | 5.2 | 13.0 | 0.00 | 0.00 | 0.00 | 88 | 1024.2 |
| 20260507060058 | 60 | 292 | 7.0 | 13.9 | 0.00 | 0.00 | 0.00 | 88 | 1024.2 |
| 20260507054608 | 60 | 259 | 5.2 | 12.2 | 0.00 | 0.00 | 0.00 | 88 | 1024.1 |
| 20260507053059 | 60 | 311 | 5.2 | 13.0 | 0.00 | 0.00 | 0.00 | 88 | 1024.1 |
| 20260507051556 | 60 | 274 | 6.1 | 13.0 | 0.00 | 0.00 | 0.00 | 89 | 1024.1 |
| 20260507044558 | 60 | 240 | 6.1 | 12.2 | 0.00 | 0.00 | 0.00 | 89 | 1024.1 |
| 20260507043101 | 60 | 240 | 6.1 | 11.3 | 0.00 | 0.00 | 0.00 | 89 | 1024.1 |
| 20260507041608 | 60 | 276 | 6.1 | 13.0 | 0.00 | 0.00 | 0.00 | 89 | 1024.2 |
| 20260507040058 | 60 | 281 | 4.3 | 10.4 | 0.00 | 0.00 | 0.00 | 88 | 1024.1 |
| 20260507034607 | 60 | 303 | 4.3 | 13.0 | 0.00 | 0.00 | 0.00 | 88 | 1024.4 |
| 20260507033058 | 60 | 274 | 6.1 | 14.8 | 0.00 | 0.00 | 0.00 | 88 | 1024.6 |
| 20260507031600 | 61 | 261 | 7.0 | 13.9 | 0.00 | 0.00 | 0.00 | 88 | 1024.5 |
| 20260507030105 | 61 | 307 | 7.0 | 13.0 | 0.00 | 0.00 | 0.00 | 88 | 1024.5 |
| 20260507024604 | 61 | 282 | 7.0 | 12.2 | 0.00 | 0.00 | 0.00 | 87 | 1024.5 |
| 20260507023113 | 61 | 291 | 6.1 | 13.0 | 0.00 | 0.00 | 0.00 | 87 | 1024.5 |
| 20260507021558 | 61 | 340 | 6.1 | 15.6 | 0.00 | 0.00 | 0.00 | 87 | 1024.7 |
| 20260507020059 | 61 | 278 | 6.1 | 15.6 | 0.00 | 0.00 | 0.00 | 87 | 1024.6 |
| 20260507014608 | 61 | 289 | 5.2 | 14.8 | 0.00 | 0.00 | 0.00 | 87 | 1024.7 |
| 20260507013114 | 61 | 283 | 7.0 | 13.9 | 0.00 | 0.00 | 0.00 | 87 | 1024.7 |
| 20260507011558 | 61 | 299 | 5.2 | 13.0 | 0.00 | 0.00 | 0.00 | 87 | 1024.7 |
| 20260507010100 | 61 | 350 | 7.0 | 15.6 | 0.00 | 0.00 | 0.00 | 87 | 1024.9 |
| 20260507004557 | 61 | 32 | 7.0 | 14.8 | 0.00 | 0.00 | 0.00 | 87 | 1025.0 |
| 20260507003100 | 61 | 8 | 9.6 | 15.6 | 0.00 | 0.00 | 0.00 | 87 | 1025.0 |
| 20260507001620 | 61 | 315 | 7.8 | 15.6 | 0.00 | 0.00 | 0.00 | 87 | 1025.1 |
| 20260506234558 | 62 | 309 | 8.7 | 17.4 | 0.00 | 0.00 | 0.00 | 87 | 1025.2 |
| 20260506233107 | 62 | 297 | 7.8 | 16.5 | 0.00 | 0.00 | 0.00 | 87 | 1025.7 |
| 20260506231600 | 62 | 309 | 7.0 | 15.6 | 0.00 | 0.00 | 0.00 | 87 | 1025.8 |
| 20260506230059 | 62 | 288 | 8.7 | 15.6 | 0.00 | 0.00 | 0.00 | 87 | 1025.9 |
| 20260506224604 | 62 | 274 | 7.8 | 16.5 | 0.00 | 0.00 | 0.00 | 87 | 1025.8 |
| 20260506223123 | 62 | 298 | 7.8 | 15.6 | 0.00 | 0.00 | 0.00 | 87 | 1025.9 |
| 20260506221610 | 61 | 337 | 7.0 | 16.5 | 0.00 | 0.00 | 0.00 | 87 | 1025.9 |
| 20260506220059 | 61 | 14 | 7.0 | 14.8 | 0.00 | 0.00 | 0.00 | 87 | 1025.9 |
| 20260506214609 | 61 | 324 | 7.8 | 14.8 | 0.00 | 0.00 | 0.00 | 88 | 1026.0 |
| 20260506213059 | 61 | 277 | 6.1 | 13.9 | 0.00 | 0.00 | 0.00 | 88 | 1026.2 |
| 20260506211558 | 61 | 323 | 7.0 | 13.9 | 0.00 | 0.00 | 0.00 | 88 | 1026.2 |
| 20260506210126 | 61 | 342 | 6.1 | 12.2 | 0.00 | 0.00 | 0.00 | 89 | 1026.3 |
| 20260506204558 | 60 | 275 | 6.1 | 16.5 | 0.00 | 0.00 | 0.00 | 89 | 1026.3 |
| 20260506203104 | 60 | 274 | 7.0 | 14.8 | 0.00 | 0.00 | 0.00 | 89 | 1026.4 |
| 20260506201558 | 60 | 284 | 7.0 | 14.8 | 0.00 | 0.00 | 0.00 | 89 | 1026.4 |
| 20260506200150 | 60 | 309 | 6.1 | 13.9 | 0.00 | 0.00 | 0.00 | 89 | 1026.5 |
| 20260506194612 | 60 | 264 | 6.1 | 13.9 | 0.00 | 0.00 | 0.00 | 89 | 1026.5 |
| 20260506193058 | 60 | 312 | 6.1 | 11.3 | 0.00 | 0.00 | 0.00 | 89 | 1026.4 |
| 20260506191600 | 59 | 294 | 7.0 | 12.2 | 0.00 | 0.00 | 0.00 | 89 | 1026.4 |
| 20260506190100 | 59 | 257 | 6.1 | 13.9 | 0.00 | 0.00 | 0.00 | 89 | 1026.5 |
| 20260506184600 | 59 | 251 | 6.1 | 15.6 | 0.00 | 0.00 | 0.00 | 89 | 1026.4 |
| 20260506183059 | 59 | 303 | 6.1 | 14.8 | 0.00 | 0.00 | 0.00 | 89 | 1026.4 |
| 20260506181600 | 59 | 336 | 7.0 | 13.0 | 0.00 | 0.00 | 0.00 | 89 | 1026.4 |
| 20260506180108 | 59 | 294 | 6.1 | 13.9 | 0.00 | 0.00 | 0.00 | 89 | 1026.5 |
| 20260506174559 | 59 | 290 | 7.8 | 13.9 | 0.00 | 0.00 | 0.00 | 89 | 1026.6 |
| 20260506173124 | 59 | 311 | 7.0 | 14.8 | 0.00 | 0.00 | 0.00 | 89 | 1026.7 |
| 20260506171603 | 59 | 315 | 7.8 | 15.6 | 0.00 | 0.00 | 0.00 | 89 | 1026.8 |
| 20260506164605 | 59 | 294 | 7.8 | 15.6 | 0.00 | 0.00 | 0.00 | 89 | 1026.8 |
| 20260506163107 | 59 | 307 | 7.0 | 13.9 | 0.00 | 0.00 | 0.00 | 89 | 1026.9 |
| 20260506161601 | 60 | 223 | 7.0 | 17.4 | 0.00 | 0.00 | 0.00 | 89 | 1026.7 |
| 20260506160108 | 60 | 225 | 7.8 | 14.8 | 0.00 | 0.00 | 0.00 | 89 | 1026.9 |
| 20260506154600 | 60 | 340 | 6.1 | 13.0 | 0.00 | 0.00 | 0.00 | 89 | 1027.0 |
| 20260506151657 | 59 | 262 | 7.8 | 15.6 | 0.00 | 0.00 | 0.00 | 89 | 1027.1 |
| 20260506150105 | 59 | 323 | 7.0 | 13.9 | 0.00 | 0.00 | 0.00 | 90 | 1027.2 |
| 20260506144600 | 59 | 281 | 7.0 | 15.6 | 0.00 | 0.00 | 0.00 | 90 | 1027.1 |
| 20260506143104 | 59 | 294 | 7.0 | 15.6 | 0.00 | 0.00 | 0.00 | 90 | 1027.4 |
| 20260506141559 | 59 | 215 | 7.0 | 13.0 | 0.00 | 0.00 | 0.00 | 90 | 1027.5 |
| 20260506140101 | 59 | 290 | 6.1 | 13.0 | 0.00 | 0.00 | 0.00 | 90 | 1027.7 |
| 20260506134619 | 60 | 298 | 7.0 | 13.9 | 0.00 | 0.00 | 0.00 | 90 | 1028.0 |
| 20260506133101 | 60 | 285 | 7.0 | 13.0 | 0.00 | 0.00 | 0.00 | 90 | 1027.8 |
| 20260506131612 | 59 | 303 | 6.1 | 13.0 | 0.00 | 0.00 | 0.00 | 90 | 1027.8 |
| 20260506130100 | 59 | 258 | 6.1 | 13.0 | 0.00 | 0.00 | 0.00 | 90 | 1027.9 |
| 20260506124609 | 59 | 307 | 3.5 | 9.6 | 0.00 | 0.00 | 0.00 | 90 | 1028.1 |
| 20260506123059 | 59 | 287 | 5.2 | 13.0 | 0.00 | 0.00 | 0.00 | 89 | 1028.1 |
| 20260506121609 | 60 | 255 | 7.8 | 13.9 | 0.00 | 0.00 | 0.00 | 89 | 1028.1 |